Regional Weather Roundup
Issued by NWS

Home | Current Version | Previous Version | Text Only | Print | Product List | Glossary On
Versions: 1 2 3 4 5 6 7 8 9 10 11 12 13 14 15 16 17 18 19 20 21 22 23 24 25 26 27 28 29 30 31 32 33 34 35 36 37 38 39 40 41 42 43 44 45 46 47 48 49 50
000
ASUS43 KMKX 242311
RWRWI

WISCONSIN REGIONAL WEATHER ROUNDUP
NATIONAL WEATHER SERVICE MILWAUKEE/SULLIVAN WI
500 PM CST WED DEC 24 2014

NOTE: "FAIR" INDICATES FEW OR NO CLOUDS BELOW 12,000 FEET WITH NO
SIGNIFICANT WEATHER AND/OR OBSTRUCTIONS TO VISIBILITY.

WIZ001-002-006>008-014>016-023>028-250000-
NORTHWEST WISCONSIN

CITY           SKY/WX    TMP DP  RH WIND       PRES   REMARKS
SUPERIOR ARPT  CLOUDY    34  31  89 W5        29.58F WCI  30
ASHLAND        CLOUDY    32  32 100 CALM      29.57F FOG
HAYWARD        CLOUDY    33  28  81 VRB3      29.56F
SIREN          CLOUDY    33  31  90 NW6       29.60F WCI  28
CUMBERLAND     CLOUDY    32  30  93 NW6       29.58S WCI  26
RICE LAKE      CLOUDY    34  30  86 NW5       29.60S WCI  30
CHETEK         CLOUDY    33  31  90 CALM      29.58S
LADYSMITH      CLOUDY    34  32  94 NW5       29.57F WCI  29
EAU CLAIRE     CLOUDY    35  29  78 NW6       29.58S WCI  30
MENOMONIE      CLOUDY    36  30  79 W9        29.60S WCI  29
NEW RICHMOND   CLOUDY    33  32  95 NW6       29.61F WCI  28
OSCEOLA        CLOUDY    35  34  96 W3        29.64F
$$

WIZ003>005-009-010-017-018-250000-
NORTH CENTRAL WISCONSIN

CITY           SKY/WX    TMP DP  RH WIND       PRES   REMARKS
MANITOWISH WTR FLURRIES  30  30 100 NW5       29.51S WCI  25
ARBOR VITAE    CLOUDY    32  30  92 N9        29.50F WCI  24
WOODRUFF       CLOUDY    32  30  92 N9        29.50F WCI  24
RHINELANDER    CLOUDY    30  28  92 N6        29.49F WCI  24
EAGLE RIVER    FLURRIES  30  29  96 N6        29.48F WCI  24
LAND O LAKES   CLOUDY    30  28  92 N6        29.49F FOG     WCI  24
PHILLIPS       CLOUDY    31  30  95 NW5       29.53R WCI  26
TOMAHAWK       CLOUDY    31  29  92 CALM      29.51F
MEDFORD        CLOUDY    31  29  92 NW7       29.53R WCI  25
MERRILL        CLOUDY    32  30  92 N3        29.51F
$$

WIZ029-030-035-036-043>047-250000-
CENTRAL WISCONSIN

CITY           SKY/WX    TMP DP  RH WIND       PRES   REMARKS
WAUSAU         CLOUDY    33  28  81 NW8       29.49F WCI  26
MOSINEE        CLOUDY    32  32 100 NW9       29.51F WCI  24
MARSHFIELD     CLOUDY    34  29  82 NW10      29.53R WCI  26
STEVENS POINT  CLOUDY    31  29  92 NW6       29.51F WCI  26
WAUPACA        CLOUDY    36  34  95 NW6       29.51S WCI  31
WAUTOMA        CLOUDY    35  35 100 NW8       29.52S WCI  28
WISC RAPIDS    CLOUDY    34  29  82 NW7       29.53F WCI  28
CAMP DOUGLAS   CLOUDY    32  32 100 W9        29.55R WCI  24
$$

WIZ011>013-019>022-031-037>040-048>050-250000-
NORTHEAST WISCONSIN

CITY           SKY/WX    TMP DP  RH WIND       PRES   REMARKS
ANTIGO         CLOUDY    31  30  96 NW12      29.48F FOG     WCI  21
SHAWANO        CLOUDY    35  34  96 CALM      29.50R
OCONTO         CLOUDY    34  34 100 N6        29.48R WCI  29
STURGEON BAY   CLOUDY    34  32  93 N12       29.47S WCI  25
GREEN BAY      LGT RAIN  35  34  96 MISG      29.48S FOG
MANITOWOC      CLOUDY    35  35 100 NW8       29.47S WCI  29
APPLETON       CLOUDY    34  34 100 NW8       29.49S FOG     WCI  27
CLINTONVILLE   CLOUDY    34  32  93 NW5       29.49S WCI  30
OSHKOSH        CLOUDY    34  32  92 NW8       29.49S FOG     WCI  27
$$

WIZ032>034-041-042-053>061-250000-
SOUTHWEST WISCONSIN

CITY           SKY/WX    TMP DP  RH WIND       PRES   REMARKS
LA CROSSE      CLOUDY    37  31  78 NW8       29.60R WCI  31
SPARTA         CLOUDY    35  31  87 NW5       29.58S WCI  31
VIROQUA        CLOUDY    33  33 100 NW5       29.56S WCI  28
BOSCOBEL       CLOUDY    37  31  78 W5        29.60R WCI  33
PRAIRIE DU CHI CLOUDY    36  31  82 W8        29.60R WCI  30
PLATTEVILLE    CLOUDY    34  32  92 NW10G16   29.57R WCI  26
$$

WIZ056-057-062-063-064-067-068-250000-
SOUTH CENTRAL WISCONSIN

CITY           SKY/WX    TMP DP  RH WIND       PRES   REMARKS
REEDSBURG      CLOUDY    33  32  95 NW8       29.53F WCI  26
BARABOO/DELLS  CLOUDY    33  32  98 NW9G17    29.52S WCI  25
LONE ROCK      CLOUDY    39  32  76 NW10      29.56F WCI  32
MINERAL POINT  CLOUDY    34  32  93 NW10      29.53S WCI  26
MADISON        CLOUDY    35  32  88 NW8       29.53R WCI  29
MIDDLETON      CLOUDY    36  35  98 NW7       29.53S WCI  30
WATERTOWN      DRIZZLE   34  34 100 NW9       29.50R WCI  27
MONROE         CLOUDY    34  34 100 NW13      29.53R WCI  25
JANESVILLE     DRIZZLE   36  36 100 W8        29.52R WCI  29
$$

WIZ051-052-058>065-066-070>072-250000-
SOUTHEAST WISCONSIN

CITY           SKY/WX    TMP DP  RH WIND       PRES   REMARKS
MILWAUKEE      CLOUDY    38  33  82 W8        29.49R WCI  32
WAUKESHA       CLOUDY    34  34 100 W8        29.49R FOG     WCI  27
MILWAUKEE/TIMM CLOUDY    37  34  87 W7        29.49R WCI  32
RACINE         CLOUDY    38  33  82 W10       29.50R WCI  31
BURLINGTON     CLOUDY    34  33  95 NW9       29.50R WCI  27
KENOSHA        CLOUDY    38  34  85 W12       29.49R WCI  30
FOND DU LAC    FLURRIES  34  32  92 NW8       29.49S WCI  27
SHEBOYGAN      CLOUDY    35  33  92 NW7       29.47S FOG     WCI  29
WEST BEND      CLOUDY    34  32  93 W10       29.48R WCI  26
JUNEAU         DRIZZLE   33  33  99 NW5       29.51R WCI  29
$$

LSZ147-162-250000-
LAKE SUPERIOR

STATION/POSITION TIME  TEMP    WIND        PRES    WAVE
                       AIR SEA DIR/SP/G            HT/PER
                 (UTC) (F)     (DEG/KT/KT) (MB)    (FT/S)
DEVILS ISLAND    2300   33     230/  5/  6 1001.9F
PORT WING        2240   34     210/  1/  2 1002.0F
SAXON HARBOR     2200   33     330/  4/  5 1002.0F
$$

LMZ867-665-643>646-250000-
LAKE MICHIGAN

STATION/POSITION TIME  TEMP    WIND        PRES    WAVE
                       AIR SEA DIR/SP/G            HT/PER
                 (UTC) (F)     (DEG/KT/KT) (MB)    (FT/S)
CHAMBERS ISLAND  2200   35     320/  9/ 11  998.3F
NORTHPORT PIER   2200   35     340/ 16/ 18  997.6
SISTER BAY       2213          360/ 14/ 17   N/A
ALGOMA LAKESHORE 2215          350/  9/ 11   N/A
KEWAUNEE LAKESHO 2200   35     350/  6/  9  997.1R
SHEBOYGAN LAKESH 2300   36 37  300/ 10/ 12  998.5R
PORT WASHINGTON  2200   38     300/  6/ 11  999.0S
MILWAUKEE LAKESH 2200   39     290/ 10/ 13   N/A
KENOSHA   LAKESH 2300   38     280/ 10/ 15  999.0R
$$

TC  - TEMPERATURE IN CELSIUS
VSB - VISIBILITY IN STATUTE MILES
WCI - WIND CHILL INDEX
HX  - HEAT INDEX




USA.gov is the U.S. government's official web portal to all federal, state and local government web resources and services.